Home   Weather   Idaho Falls   Past weeks
Flag for USA

Past Weather in Idaho Falls, Idaho, USA — Yesterday and Last 2 Weeks

Now
44 °F

Overcast.


Feels Like: 37 °F
Forecast: 52 / 34 °F
Wind: 15 mph from Northeast

Location: Fanning Field

Current Time: May 23, 2019 at 5:14:14 am

Latest Report: May 23, 2019 at 3:53 am


Visibility: 10 mi

Pressure: 29.87 "Hg (25.09 "Hg at 1429m altitude)

Humidity: 60%

Dew Point: 31 °F

Location of Idaho FallsLocation

Past Weather in Idaho Falls — Graph

°F

Idaho Falls Temperature Yesterday

Maximum temperature yesterday: 53 °F (at 2:53 pm)
Minimum temperature yesterday: 40 °F (at 6:53 am)
Average temperature yesterday: 46 °F

High & Low Weather Summary for the Past Weeks

 TemperatureHumidityPressure
High79 °F (May 13, 3:53 pm)96% (May 18, 7:39 am)30.11 "Hg (May 18, 7:39 am)
Low28 °F (May 10, 4:53 am)16% (May 13, 12:53 pm)29.48 "Hg (May 16, 5:53 pm)
Average52 °F61%29.81 "Hg
* Reported May 8 3:53 am — May 23 3:53 am, Idaho Falls. Weather by CustomWeather, © 2019

Note: Actual official high and low records may vary slightly from our data, if they occured in-between our weather recording intervals... More about our weather records

Advertising

Idaho Falls Weather History for the Previous 24 Hours

Scroll right to see more
 ConditionsComfort  
Time TempWeatherWind HumidityBarometerVisibility
3:53 am
Thu, May 23
44 °FOvercast.15 mph60%29.87 "Hg10 mi
2:53 am45 °FOvercast.14 mph58%29.88 "Hg10 mi
1:53 am45 °FPassing clouds.13 mph58%29.89 "Hg10 mi
12:53 am46 °FOvercast.13 mph56%29.90 "Hg10 mi
11:53 pm
Wed, May 22
47 °FPassing clouds.15 mph54%29.90 "Hg10 mi
10:53 pm48 °FOvercast.13 mph52%29.90 "Hg10 mi
9:53 pm49 °FPassing clouds.14 mph52%29.90 "Hg10 mi
8:53 pm50 °FMore clouds than sun.12 mph54%29.88 "Hg10 mi
7:53 pm50 °FPartly sunny.6 mph63%29.87 "Hg10 mi
6:53 pm52 °FOvercast.6 mph55%29.85 "Hg10 mi
5:53 pm53 °FOvercast.9 mph41%29.84 "Hg10 mi
4:53 pm53 °FOvercast.12 mph43%29.82 "Hg10 mi
3:53 pm51 °FOvercast.6 mph46%29.81 "Hg10 mi
2:53 pm53 °FPartly sunny.10 mph45%29.78 "Hg10 mi
1:53 pm52 °FOvercast.10 mph47%29.77 "Hg10 mi
12:53 pm51 °FOvercast.14 mph50%29.76 "Hg10 mi
11:53 am48 °FMostly cloudy.16 mph59%29.76 "Hg10 mi
10:55 am45 °FLight rain. Overcast.18 mph74%29.78 "Hg10 mi
9:53 am43 °FLight rain. Mostly cloudy.20 mph71%29.74 "Hg10 mi
8:53 am41 °FLight rain. Overcast.10 mph82%29.74 "Hg10 mi
7:53 am40 °FLight rain. Mostly cloudy.15 mph89%29.71 "Hg8 mi
7:18 am41 °FLight rain. Mostly cloudy.13 mph86%29.71 "Hg9 mi
6:53 am40 °FLight rain. Overcast.12 mph89%29.69 "Hg7 mi
6:02 am41 °FLight rain. Mostly cloudy.8 mph82%29.67 "Hg8 mi
5:53 am41 °FLight rain. Mostly cloudy.8 mph80%29.64 "Hg10 mi
5:23 am42 °FLight rain. Overcast.7 mph76%29.66 "Hg9 mi
Weather by CustomWeather, © 2019

See weather overview